Wind_Speed
81 82 83 84 84 84 84 85 86 88 89 90 90 92 94 94 95 96 97 99 100 101 102 103 104 105 106 106 107 108 109 111 112 113 114 115 116 117 118 119 120 121 123 124 126 127 127 128 129 130 132 133 134 135 136 137 137 139 141 142 142 142 141 140 139 136 133 131 131 132 133 133 131 129 130 131 130 129 128 129 130 130 132 133 133
83 84 85 86 86 87 88 89 90 91 92 92 93 95 96 97 97 98 99 101 102 104 105 106 107 108 108 109 110 111 112 114 115 116 117 117 118 120 121 122 123 124 126 127 128 129 130 130 131 132 134 135 136 137 137 138 139 141 143 143 142 142 141 141 141 139 136 134 132 132 133 133 132 130 132 133 132 131 130 130 132 133 134 135 134
85 87 87 88 88 89 90 91 92 93 94 95 96 98 99 100 100 101 102 103 105 106 107 108 109 110 111 112 113 113 115 116 117 118 119 120 121 122 123 125 126 127 129 130 131 131 132 133 134 135 136 137 138 138 139 140 142 143 143 143 141 140 141 141 142 142 141 137 134 133 133 134 133 132 133 135 136 135 135 134 134 135 134 134 134
88 89 89 89 90 91 92 93 94 96 97 98 100 101 102 102 103 103 104 105 107 108 109 110 111 112 114 115 115 116 117 119 120 121 122 123 124 125 126 128 129 130 132 132 133 134 134 135 136 137 137 138 139 139 141 142 143 143 142 141 140 140 141 143 144 145 144 141 138 136 135 135 135 134 136 138 139 139 138 137 136 136 135 133 132
90 90 91 91 92 93 94 96 97 98 100 102 103 104 104 105 105 106 107 108 109 110 111 112 114 115 116 117 118 118 120 121 123 124 125 126 127 128 129 130 132 133 134 134 135 136 136 137 138 138 138 139 139 140 142 143 143 142 141 140 140 141 142 144 145 146 145 144 141 139 138 138 137 138 139 141 142 141 140 138 137 135 134 132 129
93 93 94 94 95 96 97 98 100 101 103 104 105 106 107 107 108 109 109 110 111 112 113 115 116 118 119 119 120 121 123 124 126 127 128 129 130 131 132 133 134 135 136 136 137 137 138 138 139 139 139 140 141 141 142 142 141 141 140 140 141 142 143 144 145 145 145 145 143 142 141 141 140 140 142 143 143 142 141 139 136 133 132 128 124
96 97 97 98 98 99 100 101 102 104 105 106 107 108 109 110 110 111 112 112 113 114 115 117 118 120 121 122 123 124 126 127 129 130 131 132 133 134 135 136 136 137 137 138 138 138 139 139 139 140 141 141 142 142 142 141 141 141 141 141 142 143 144 145 145 145 145 145 145 144 144 144 144 143 143 143 143 142 142 140 136 132 128 125 122
99 99 100 101 101 102 103 105 106 107 108 108 109 110 111 112 113 113 114 114 115 116 117 119 121 122 124 125 126 127 128 130 132 133 134 135 135 136 137 138 138 139 139 139 139 140 140 140 141 141 142 142 142 142 142 141 141 141 142 144 144 145 145 145 146 146 147 146 146 147 147 146 146 146 145 144 143 142 141 139 134 129 125 123 121
101 102 103 103 104 106 107 108 109 110 110 111 112 113 114 114 115 115 116 117 117 118 119 121 123 125 126 128 129 130 131 133 134 135 136 136 137 138 139 139 139 139 139 140 140 140 141 141 142 142 143 143 143 143 143 143 143 144 145 146 146 146 147 147 148 148 148 148 148 148 148 148 147 146 145 144 142 139 136 133 130 126 124 123 121
104 104 105 107 108 109 110 111 112 112 113 114 114 115 116 117 117 118 118 119 120 121 122 124 126 128 129 131 132 133 134 135 135 136 137 137 138 139 140 140 140 139 140 140 140 141 141 142 142 143 143 143 143 143 144 145 146 146 147 148 148 149 149 149 150 150 149 149 149 149 149 148 147 146 146 144 141 137 134 131 129 126 124 122 119
107 108 109 110 111 112 113 113 114 115 116 116 117 118 118 119 120 120 121 121 122 124 126 128 130 131 133 134 134 135 135 136 136 137 138 139 140 140 140 140 140 140 140 140 140 141 141 142 142 143 143 143 144 144 145 146 146 147 148 149 150 151 151 151 151 151 151 151 150 150 150 149 148 147 146 143 139 135 133 131 130 127 124 122 119
110 111 112 113 114 114 114 115 116 117 118 118 119 120 121 121 122 123 124 125 126 128 130 131 133 134 135 136 136 136 137 137 137 138 139 140 140 140 140 140 140 140 140 140 140 141 141 142 142 143 143 144 145 145 146 146 146 147 148 149 150 151 152 153 153 153 153 152 151 150 150 150 148 146 144 142 139 136 134 132 129 127 124 121 119
112 113 114 115 115 115 116 117 118 119 119 119 120 121 122 123 124 125 127 128 130 131 133 134 136 137 137 137 138 138 138 138 139 140 141 141 141 140 140 140 140 140 140 140 141 141 142 142 143 144 145 146 146 146 146 147 147 148 148 149 149 150 151 152 153 154 154 153 152 151 150 149 148 145 142 141 139 138 135 132 129 127 124 120 117
114 115 115 116 116 117 118 119 120 120 120 121 122 123 124 125 127 128 130 131 133 134 135 137 138 139 139 139 139 139 139 139 140 141 141 141 141 141 141 141 141 141 141 141 142 142 143 143 144 145 146 147 147 147 148 148 148 148 148 148 148 149 151 152 153 153 153 153 153 152 151 149 147 144 141 141 140 139 136 133 130 127 122 118 115
116 116 117 118 118 119 121 122 122 121 122 123 123 125 126 128 129 131 132 133 135 136 138 139 139 140 139 139 139 139 140 140 141 141 141 141 141 141 141 141 141 141 142 143 143 143 144 145 146 147 148 148 149 150 150 149 148 148 147 148 148 149 151 151 151 152 152 153 153 152 151 149 146 144 143 142 141 139 136 132 129 126 121 116 112
117 118 119 120 121 122 123 123 123 123 124 125 126 128 129 131 132 133 134 135 136 138 139 140 140 140 140 139 139 140 140 141 141 141 141 141 141 141 141 141 142 142 143 144 144 145 146 147 148 149 149 150 151 151 151 150 149 149 149 149 149 149 150 150 150 151 152 152 152 152 150 148 147 145 145 144 142 140 136 131 127 124 120 115 110
119 120 121 122 124 124 125 125 126 126 127 128 130 131 132 133 134 135 136 137 138 139 140 140 140 140 139 140 140 140 141 142 142 141 141 141 141 141 142 142 143 143 144 144 145 146 147 148 149 150 150 151 151 151 151 151 151 152 151 151 150 149 149 149 149 149 150 151 152 151 150 149 148 146 145 144 143 140 136 131 126 122 118 113 109
121 122 124 125 126 126 127 128 129 129 130 131 132 132 133 134 135 136 137 138 139 139 139 139 139 139 139 140 141 141 142 142 142 142 142 142 142 142 142 143 143 143 144 145 146 147 149 149 150 150 150 150 150 151 152 153 153 153 153 152 151 150 149 149 148 147 147 147 148 148 149 149 148 146 144 143 141 138 135 131 127 122 117 112 108
123 125 126 127 128 129 130 130 131 131 132 132 133 134 134 135 136 137 138 138 139 139 139 139 139 140 140 141 142 142 142 142 142 142 142 142 142 142 142 142 143 143 144 145 147 148 149 149 149 149 149 150 151 152 153 153 154 153 153 152 152 151 150 149 148 146 144 144 144 145 146 145 144 143 141 139 137 135 133 130 126 122 116 111 107
126 127 128 129 130 130 131 131 131 132 133 133 134 134 135 136 137 137 138 138 138 138 139 139 140 141 141 142 142 142 143 143 143 143 143 143 143 142 142 143 143 144 145 146 147 147 147 147 147 148 149 150 151 152 153 153 153 153 153 153 153 152 151 149 147 145 144 144 144 143 143 141 140 139 138 136 134 133 131 127 123 119 114 110 106
128 129 129 130 130 130 130 131 132 132 133 133 134 135 136 136 137 137 137 137 138 139 140 140 141 141 142 142 142 143 143 143 143 143 143 143 143 143 143 144 144 145 145 145 145 145 145 146 147 148 149 150 151 151 152 152 153 153 153 153 153 153 151 149 147 146 146 146 145 144 143 141 139 136 134 133 132 130 127 123 119 115 111 107 103
129 129 129 129 129 129 130 131 132 132 133 134 135 135 136 136 136 136 137 138 139 140 140 141 141 142 142 143 143 143 143 143 143 143 143 143 143 144 144 144 145 145 144 144 144 145 145 146 147 148 149 150 150 151 151 152 152 152 153 153 153 152 151 149 149 148 147 147 146 145 143 140 137 134 132 130 128 126 123 119 116 112 108 105 101
127 127 127 128 128 129 130 131 132 133 133 134 134 135 135 136 136 137 138 139 139 140 141 141 142 142 143 143 143 143 143 143 143 143 143 143 144 144 144 144 144 144 144 144 144 145 146 147 147 148 148 149 150 150 151 151 151 152 152 152 152 152 151 150 149 148 147 147 146 144 140 136 134 132 130 127 123 120 118 116 113 109 105 101 99
126 127 128 128 129 130 131 132 132 133 133 134 134 135 135 136 137 138 139 139 140 141 141 142 142 142 142 143 143 143 143 142 142 142 143 143 143 143 143 143 143 143 143 144 145 145 146 146 146 147 147 148 149 149 150 151 151 152 152 152 152 152 151 150 149 147 147 146 145 142 138 134 131 129 127 123 118 114 112 110 108 106 101 98 97
127 128 129 129 130 131 132 132 133 133 134 134 135 136 136 137 138 138 139 140 140 141 141 141 141 141 142 142 142 142 142 142 142 142 142 142 142 142 142 142 143 143 144 145 145 145 145 146 146 146 147 147 148 149 149 150 151 152 153 153 153 152 151 150 149 148 147 146 143 139 136 133 129 125 122 119 115 110 106 104 104 102 99 96 94
128 129 130 130 131 132 132 133 133 134 135 135 136 137 137 138 138 139 139 140 140 140 140 140 140 140 141 141 141 141 141 141 141 141 141 141 141 142 142 142 143 143 144 145 145 145 145 145 146 146 146 146 147 147 148 150 151 153 154 154 153 152 151 150 150 149 147 144 141 138 135 131 127 122 119 116 113 108 104 101 99 99 96 93 91
129 130 131 131 132 132 133 134 134 135 136 136 137 137 137 138 138 138 138 138 138 138 138 138 139 139 140 140 140 139 139 139 139 139 140 140 140 141 141 142 143 143 144 144 144 144 145 145 145 144 145 145 146 147 149 151 152 154 154 154 154 153 152 152 151 148 145 142 139 136 133 128 124 119 115 113 110 107 103 99 97 95 92 89 87
130 130 131 132 132 133 134 134 135 135 136 136 136 136 136 137 137 137 137 137 137 137 137 137 137 138 138 138 138 137 137 137 137 138 139 139 140 141 141 142 142 143 143 143 143 143 143 143 143 143 144 145 146 148 150 152 153 154 155 154 154 154 153 152 150 146 143 140 137 133 129 124 120 115 112 110 108 105 101 98 94 91 88 86 83
130 131 132 132 133 133 134 134 134 134 134 134 134 134 134 135 135 135 135 136 136 135 135 135 135 136 136 135 135 135 135 135 137 138 139 139 140 140 141 141 141 141 141 141 141 140 141 141 142 143 144 146 147 149 150 152 153 154 154 154 154 154 152 150 146 143 140 137 133 129 124 119 115 111 109 107 106 103 99 95 91 88 85 83 81
130 130 131 131 131 131 132 132 132 132 132 132 132 132 133 133 133 133 133 133 133 133 132 132 133 133 132 132 133 133 134 135 136 138 138 139 140 140 140 140 140 139 139 139 139 139 140 141 143 144 145 146 148 149 150 151 151 152 153 153 153 152 149 145 142 139 136 133 129 125 120 115 111 108 106 104 102 99 95 91 87 85 83 81 79
129 129 129 129 129 130 130 130 130 130 130 130 130 130 130 131 131 131 131 130 130 130 130 129 130 130 130 131 132 132 133 135 136 137 138 138 139 139 139 138 137 137 137 138 139 140 141 143 144 145 146 148 149 149 150 150 151 151 152 151 150 147 144 141 138 135 132 128 124 120 117 112 109 106 104 101 98 95 92 88 85 82 80 78 76
128 128 128 128 128 128 128 128 128 128 128 128 128 128 128 128 128 128 128 128 127 127 127 128 128 129 130 131 131 132 133 134 135 136 136 137 137 137 136 135 135 136 137 139 140 141 143 144 145 146 147 148 149 150 150 151 151 151 150 148 146 143 140 138 135 131 128 124 120 117 114 111 108 105 102 98 95 92 89 86 84 81 78 76 74
126 126 126 126 126 126 126 126 126 126 126 126 126 126 126 126 126 126 126 126 126 126 127 128 128 129 130 131 131 132 132 133 134 134 134 134 134 134 134 135 136 137 139 140 142 143 144 145 146 147 148 149 149 150 151 151 151 150 148 145 142 140 137 135 131 128 124 120 117 114 112 109 106 103 99 96 93 91 88 85 83 80 77 74 71
125 125 125 125 125 125 125 125 125 125 125 125 125 125 125 125 125 125 125 125 126 126 127 128 128 129 129 129 130 130 131 131 131 131 132 132 133 134 135 136 138 139 141 142 143 144 144 146 147 148 149 149 150 150 151 150 149 147 144 141 139 137 134 131 128 125 121 118 114 112 110 107 103 100 97 93 91 89 87 84 82 79 76 73 70
125 125 125 125 125 125 124 124 124 124 124 124 124 124 124 124 125 125 125 125 126 126 127 127 128 128 128 127 128 128 128 129 129 130 131 133 134 135 136 137 139 140 142 143 144 144 145 146 147 148 149 149 149 149 149 147 145 142 140 138 136 134 131 128 125 122 119 116 113 110 107 103 100 97 95 91 89 87 85 83 80 78 75 72 68
121 121 121 121 121 121 121 121 121 121 122 122 122 123 123 123 124 124 124 124 125 125 125 125 125 125 125 125 126 127 127 128 130 131 133 134 135 136 137 138 139 141 142 144 145 145 146 147 148 149 149 149 148 147 146 143 141 139 137 135 133 130 127 124 121 119 117 114 111 108 104 100 96 94 92 91 88 85 83 81 78 76 73 71 67
115 115 116 116 117 117 118 118 118 119 119 120 120 121 121 121 121 121 121 122 122 122 123 123 124 124 124 125 126 127 129 130 132 133 134 135 136 137 138 138 140 141 143 144 145 146 147 148 148 149 148 147 146 144 142 139 138 136 134 131 129 126 123 121 119 118 115 113 110 106 102 98 94 91 90 89 87 84 82 79 76 74 71 69 65
113 113 114 114 115 115 115 116 116 116 116 117 117 117 118 118 119 119 119 120 121 122 123 124 125 125 126 127 128 130 131 132 133 134 135 136 137 137 138 139 140 142 143 145 146 147 148 148 148 148 146 144 142 140 138 137 135 133 130 128 125 123 121 119 118 117 115 112 109 105 101 97 93 89 88 87 85 82 80 77 74 72 69 67 63
111 112 112 112 112 112 113 113 113 114 114 115 115 116 116 117 118 119 120 121 122 123 125 126 127 127 128 129 130 131 132 134 134 135 136 137 137 138 138 140 142 143 144 146 147 148 148 148 147 145 143 141 139 137 136 134 132 129 126 124 122 120 119 118 117 115 113 111 107 103 99 96 92 89 87 85 83 80 77 75 72 70 67 64 61
109 109 109 110 110 110 111 111 112 112 113 114 115 116 117 118 119 120 121 123 124 126 127 128 129 130 130 131 132 133 134 135 135 136 137 138 138 139 140 142 143 144 145 146 147 147 147 146 144 142 140 138 137 135 134 132 129 125 123 121 119 118 117 116 115 113 111 108 105 102 98 95 92 89 86 83 81 79 75 72 70 68 65 62 59
106 106 107 108 108 109 109 110 111 112 113 114 115 116 118 119 121 122 123 124 126 127 129 130 131 131 132 132 133 134 135 135 136 137 138 139 139 140 142 143 144 145 146 147 147 146 145 143 141 139 137 136 135 133 131 128 125 122 120 119 118 117 116 114 113 111 109 106 103 100 97 94 91 88 84 81 79 77 74 71 68 66 63 60 58
105 105 106 107 108 108 109 110 111 112 114 115 116 117 119 120 121 123 124 125 127 128 129 131 132 133 133 133 133 134 134 135 136 137 138 139 141 142 143 144 145 146 146 146 145 143 141 139 138 137 136 134 133 130 127 124 121 119 118 118 117 116 114 113 110 108 106 103 101 98 95 93 90 87 83 79 76 74 73 70 67 64 61 58 56
105 106 107 108 109 110 111 112 114 115 116 117 119 120 121 122 123 124 125 127 128 129 130 132 133 133 133 133 132 132 133 135 136 137 139 140 142 143 144 145 145 146 145 144 143 140 138 137 136 135 134 132 130 127 124 121 119 118 117 117 116 114 112 110 108 105 103 101 99 96 94 91 89 86 83 79 74 71 70 68 66 63 59 57 54
108 109 110 111 112 113 114 116 117 118 119 120 121 122 123 124 125 126 127 128 129 129 130 131 131 132 132 132 132 133 134 136 138 138 140 141 142 143 144 145 145 145 144 142 140 138 136 135 134 133 132 129 126 124 121 120 118 118 117 116 114 112 109 107 105 103 100 99 97 95 93 90 88 85 82 78 74 70 67 65 64 62 59 56 53
110 111 112 113 114 115 116 118 119 120 121 122 123 124 125 126 127 127 128 128 128 129 129 130 131 131 132 132 133 134 136 137 138 139 140 141 142 142 143 144 144 143 141 140 138 137 135 133 132 131 129 126 123 122 120 119 118 117 116 115 112 109 106 104 102 100 98 96 95 93 91 88 86 83 80 77 74 70 66 62 60 59 58 56 53
113 114 115 115 116 117 118 120 121 121 122 123 125 126 126 127 127 128 128 128 128 129 129 130 131 132 133 134 135 136 137 138 140 140 141 141 142 142 142 143 142 141 139 138 136 135 133 131 129 127 125 123 121 121 120 119 118 117 115 113 110 107 104 102 100 98 96 94 92 90 88 86 83 80 78 75 73 70 66 62 58 56 54 54 53
115 116 117 118 119 120 121 122 123 124 124 125 126 127 127 127 127 127 127 128 128 129 130 131 132 134 135 136 137 137 138 139 140 141 141 141 141 141 141 141 140 139 137 136 135 133 130 128 126 123 121 120 120 120 119 118 117 116 113 110 107 104 102 100 98 96 94 92 90 88 86 83 80 78 75 73 71 68 65 61 58 55 53 51 50
118 119 120 120 121 122 123 124 125 125 126 126 127 127 127 127 127 127 127 128 129 130 131 132 134 135 136 137 138 138 139 140 141 141 141 141 140 139 139 139 138 137 136 135 133 130 127 125 122 121 119 119 119 118 117 116 115 114 111 108 105 103 100 99 97 95 92 89 87 85 83 80 78 76 73 71 69 66 64 61 58 55 53 51 49
120 120 121 122 123 124 125 125 126 125 126 126 126 126 126 126 127 127 128 129 130 131 133 134 135 136 137 138 139 140 140 141 141 141 141 140 139 138 137 137 137 136 135 133 130 127 124 122 120 119 118 117 117 116 115 114 113 111 108 105 103 101 99 97 95 92 90 88 85 83 80 78 75 73 71 68 66 64 62 60 57 55 53 51 49
121 122 123 123 124 124 125 125 125 125 125 126 126 126 127 127 128 128 129 131 132 133 133 134 135 136 137 138 139 139 139 139 139 139 138 138 137 137 136 136 135 134 132 130 127 124 122 120 119 117 117 116 115 114 113 111 110 108 105 103 100 98 97 96 93 91 88 86 83 80 78 75 73 71 69 67 64 62 60 59 57 55 52 50 49
123 123 123 124 124 124 124 125 125 125 126 126 127 127 128 129 129 130 131 131 132 133 134 134 135 136 136 136 137 137 137 136 136 136 137 137 136 136 135 134 133 131 128 126 123 122 121 119 118 116 115 115 113 112 110 108 107 105 103 101 98 96 95 93 91 89 87 84 81 78 76 74 71 69 67 65 63 61 59 57 55 53 52 50 49
Wind_Direction
276 278 280 282 284 285 285 286 287 288 289 290 291 292 294 294 294 294 294 295 296 298 299 299 300 301 302 303 304 304 305 305 305 305 305 306 306 306 307 307 307 307 307 307 308 308 308 309 309 309 310 310 311 311 312 311 311 312 312 312 313 313 313 314 314 315 315 315 314 314 314 313 313 312 311 311 310 309 309 309 309 308 308 308 308
276 279 281 282 283 284 285 286 286 287 288 289 289 291 292 293 294 294 294 295 296 297 298 298 299 300 302 302 303 303 304 305 305 305 305 305 306 306 306 306 307 307 307 307 307 308 308 309 309 310 310 310 311 311 311 311 311 312 312 312 312 312 312 313 313 314 314 314 314 313 313 312 312 311 310 309 309 308 308 308 307 307 307 308 308
277 279 281 282 282 283 284 285 286 287 287 288 289 290 291 292 293 294 294 295 295 296 297 298 299 301 301 302 302 303 304 304 305 305 305 305 305 306 306 306 307 307 307 307 308 308 308 309 309 309 310 310 310 311 311 311 311 311 311 312 312 312 312 312 312 313 313 313 313 312 312 311 311 310 309 308 308 308 307 307 307 307 308 308 308
278 279 280 281 282 283 283 284 285 286 286 287 288 290 291 292 293 294 294 295 295 296 297 299 300 300 301 301 302 302 303 304 304 304 304 305 305 306 306 306 306 306 307 307 308 308 308 309 309 309 310 310 310 310 310 310 311 311 311 311 311 311 311 311 312 312 313 313 312 312 311 310 310 309 309 308 308 308 308 308 308 308 308 308 308
278 279 280 280 281 282 283 283 284 285 286 287 288 289 290 291 292 293 294 295 296 297 298 299 299 300 301 301 301 302 302 303 303 304 304 305 305 305 306 306 306 306 307 307 307 308 308 308 309 309 309 309 309 309 310 310 310 310 310 310 310 310 311 311 311 312 312 312 312 311 311 310 310 309 308 308 308 308 308 308 308 308 309 309 309
277 278 278 279 280 281 282 283 284 285 286 287 287 288 289 291 292 293 294 295 296 297 298 298 299 300 301 301 301 301 301 302 303 303 304 304 305 305 305 306 306 306 306 307 307 307 308 308 308 309 309 309 309 309 309 309 309 309 309 309 310 310 310 310 310 311 311 311 311 310 310 309 309 308 308 308 308 308 308 308 309 309 309 309 309
276 277 277 278 279 280 281 282 284 285 286 286 287 288 289 291 292 294 295 296 296 297 297 298 299 299 300 300 300 300 301 301 302 303 303 304 304 305 305 305 306 306 306 306 307 307 307 308 308 308 308 308 308 308 308 308 309 309 309 309 309 309 309 310 310 310 310 310 310 310 309 309 309 309 309 309 309 309 309 309 310 310 309 309 309
275 276 277 278 278 279 281 282 284 285 286 286 287 288 290 291 293 294 295 295 296 296 297 297 298 299 299 299 299 300 300 301 301 302 303 303 304 304 305 305 305 306 306 306 307 307 307 307 307 307 307 308 308 308 308 308 308 308 308 308 308 309 309 309 309 309 309 309 309 309 309 309 309 309 309 309 309 309 310 310 310 310 309 309 309
275 276 277 278 279 280 281 282 283 285 286 287 288 289 290 292 293 294 294 295 295 295 296 296 297 297 298 298 299 299 300 300 301 301 302 303 304 304 305 305 305 305 305 306 306 306 306 307 307 307 307 307 307 307 308 308 308 308 308 308 308 308 308 308 308 309 309 309 309 309 309 309 309 309 309 309 309 310 310 310 310 310 309 308 308
276 276 277 278 279 280 281 282 284 286 287 288 289 290 291 292 293 293 294 294 294 294 294 295 296 297 297 298 298 299 299 300 300 301 302 302 303 304 304 304 304 305 305 305 305 306 306 306 306 306 306 307 307 307 307 307 307 308 308 308 308 308 308 308 308 308 309 309 309 309 309 309 310 310 310 310 311 311 311 311 310 310 309 308 308
276 276 277 278 279 280 282 283 285 287 289 289 290 290 291 292 292 292 292 292 293 293 294 295 296 296 297 298 298 298 299 299 300 300 301 302 303 303 303 304 304 304 304 305 305 305 305 305 305 306 306 306 306 306 307 307 307 307 307 308 308 308 308 308 308 308 309 309 309 310 310 310 311 311 311 312 312 312 312 311 311 310 309 308 308
276 277 278 279 280 281 283 284 286 288 290 291 291 291 291 291 291 291 291 291 292 292 293 294 295 296 297 297 298 298 299 299 300 300 301 302 302 303 303 303 304 304 304 304 304 304 304 304 305 305 305 305 306 306 306 306 306 307 307 307 307 308 308 308 308 309 309 309 310 310 311 311 312 312 313 313 313 312 312 312 311 310 310 309 309
277 278 278 279 280 282 284 286 288 289 290 291 291 291 291 290 290 290 290 291 291 292 293 294 295 296 297 297 298 298 298 299 299 300 301 302 302 302 303 303 303 303 304 304 304 304 304 304 304 304 305 305 305 305 305 306 306 306 306 307 307 308 308 308 308 309 310 310 311 311 312 312 313 313 314 314 313 313 313 312 312 311 311 310 310
277 278 279 280 281 283 285 287 288 289 290 290 290 290 289 289 289 289 290 290 291 292 293 294 295 296 296 297 297 298 298 299 300 300 301 301 302 302 302 303 303 303 303 303 303 303 303 303 304 304 304 304 304 305 305 305 305 306 306 307 307 308 308 308 309 310 310 311 311 312 313 313 314 314 314 314 314 313 313 313 312 312 311 311 311
277 278 279 280 282 283 285 286 287 288 288 288 288 288 288 288 289 289 289 290 291 292 293 294 295 295 296 296 297 298 298 299 300 300 301 301 302 302 302 302 302 302 302 302 303 303 303 303 303 304 304 304 304 304 305 305 305 306 306 307 307 308 308 309 310 310 311 311 312 313 313 314 314 315 315 314 314 314 313 313 313 312 311 311 312
277 278 279 280 282 283 284 285 286 286 286 286 287 287 287 288 288 289 289 290 291 292 293 294 294 295 296 296 297 298 298 299 300 300 301 301 301 301 301 301 301 302 302 302 302 302 302 303 303 303 304 304 304 304 305 305 306 306 306 307 307 308 309 309 310 311 311 312 313 313 314 314 315 315 315 315 315 314 313 313 313 312 312 312 312
278 278 279 280 281 282 283 283 284 284 285 285 286 286 287 288 288 289 289 290 291 292 293 293 294 295 296 296 297 298 298 299 299 300 300 300 300 300 300 301 301 301 301 302 302 302 302 303 303 303 304 304 304 305 305 305 306 306 307 307 308 308 309 310 310 311 312 312 313 313 314 314 315 315 315 315 315 314 314 313 313 313 312 312 312
277 277 278 278 279 280 281 282 283 284 284 285 286 286 287 288 288 289 289 290 291 292 292 293 294 295 296 296 297 297 298 298 298 299 299 299 299 299 300 300 300 301 301 301 301 302 302 302 303 303 304 304 304 305 305 306 306 307 307 308 308 309 309 310 311 311 312 312 313 313 313 314 314 315 315 315 314 314 314 314 314 313 313 313 312
275 275 276 277 278 279 280 282 283 284 284 285 286 286 287 288 288 289 289 290 291 291 292 293 294 295 295 296 296 297 297 297 298 298 298 298 299 299 299 300 300 300 301 301 301 301 302 302 303 303 304 304 305 305 306 306 307 307 308 308 309 309 310 311 311 312 312 313 313 313 313 313 314 315 315 315 315 315 315 315 314 313 313 313 312
274 275 276 277 278 279 280 282 283 283 284 285 286 286 287 287 288 288 289 290 290 291 292 293 294 294 295 295 296 296 296 297 297 297 297 298 298 298 299 299 299 299 300 300 300 301 302 302 303 303 304 305 305 306 306 307 307 308 308 309 309 310 310 311 312 313 313 313 313 314 314 314 315 315 316 316 315 315 314 314 314 313 313 312 312
274 275 276 277 278 280 281 281 282 283 284 284 285 285 286 286 287 288 289 290 290 291 292 293 294 294 295 295 295 295 296 296 296 297 297 297 298 298 298 298 298 299 299 300 300 301 302 302 303 304 304 305 305 306 306 307 307 308 309 309 310 310 311 312 313 313 314 314 314 315 315 316 316 316 316 316 315 315 314 314 313 313 312 312 312
275 276 277 278 279 280 280 281 282 282 283 284 284 285 286 286 287 288 289 290 291 291 292 293 293 294 294 294 295 295 295 295 296 296 296 297 297 297 297 298 298 299 299 300 300 301 302 302 303 304 305 305 306 306 307 307 308 308 309 309 310 310 311 313 313 314 314 314 315 315 316 316 317 317 316 316 315 315 314 314 313 313 313 312 312
276 276 277 278 279 279 280 281 282 282 283 284 284 285 286 287 288 288 289 290 291 291 292 292 293 293 293 293 294 294 294 295 295 296 296 296 296 297 297 298 298 299 299 300 301 301 302 303 304 304 305 305 306 306 307 307 308 308 309 309 310 311 312 313 313 314 314 315 315 316 316 317 317 317 316 315 315 315 314 314 313 313 313 313 312
276 276 277 278 279 279 280 281 282 282 283 284 285 285 286 287 288 289 289 290 290 291 291 292 292 292 292 293 293 293 294 294 295 295 295 296 296 297 297 298 298 299 300 300 301 302 303 303 304 305 305 306 306 307 307 308 308 308 309 309 310 311 312 313 313 314 315 315 316 316 316 317 316 316 315 315 315 314 314 314 313 313 313 313 313
276 277 278 278 279 280 281 281 282 283 283 284 285 286 286 287 288 289 289 290 290 290 291 291 291 291 292 292 293 293 294 294 294 295 295 295 296 297 297 298 299 300 300 301 302 303 303 304 305 305 306 306 307 307 307 308 308 308 308 309 310 311 312 313 314 315 315 315 316 316 316 316 316 316 315 315 314 314 314 314 314 313 314 314 313
276 277 278 278 279 280 281 281 282 283 284 284 285 286 287 287 288 288 288 289 289 289 290 290 291 291 291 292 292 293 293 294 294 294 295 295 296 297 298 299 299 300 301 302 303 303 304 305 305 306 306 306 307 307 307 307 307 308 308 309 311 312 313 314 314 315 315 316 316 316 316 316 316 316 316 315 315 315 315 315 314 314 314 314 313
276 277 277 278 279 280 280 281 282 283 284 284 285 286 286 287 287 287 288 288 288 289 289 290 290 291 291 291 292 292 293 293 294 295 295 296 297 298 299 299 300 301 302 303 303 304 305 305 305 306 306 306 306 306 307 307 307 308 309 310 311 312 313 314 314 315 315 315 315 316 316 316 316 317 316 316 315 315 315 315 315 314 314 314 313
276 276 277 278 279 280 280 281 282 283 283 284 284 285 285 286 286 286 287 287 288 288 289 289 290 290 290 291 292 292 293 294 295 295 296 297 297 298 299 300 301 301 302 303 304 304 304 305 305 305 306 306 306 306 306 307 308 308 309 310 311 312 313 314 314 314 315 315 315 315 315 316 316 317 316 316 315 315 315 315 315 315 314 314 313
276 277 277 278 279 280 280 281 282 282 283 283 283 284 284 285 285 286 286 287 287 288 288 289 289 290 290 291 292 293 294 295 295 296 296 297 298 299 299 300 301 302 302 303 303 304 304 304 304 305 305 305 305 306 306 307 308 309 310 310 311 312 313 313 313 314 314 314 314 315 315 316 316 316 316 316 316 316 316 316 316 315 314 314 313
276 277 278 278 279 279 280 280 281 281 282 282 283 283 284 284 284 285 285 286 287 287 288 289 289 290 291 292 293 294 294 295 295 296 297 297 298 299 300 300 301 302 302 302 303 303 303 303 304 304 304 305 305 306 306 307 308 309 310 310 311 312 312 312 313 313 313 314 314 315 315 316 316 316 317 316 316 316 316 316 316 315 315 314 314
276 277 277 278 278 279 279 280 280 281 281 282 282 282 283 283 284 284 285 286 287 288 289 290 290 291 292 293 293 294 295 295 296 296 297 298 298 299 300 300 301 301 302 302 302 302 303 303 303 304 304 305 305 306 307 308 308 309 310 310 311 311 311 312 312 313 313 314 314 315 315 316 317 317 317 317 316 316 316 316 316 316 315 314 314
276 276 277 277 278 278 279 279 280 280 281 281 282 282 283 284 284 285 286 287 288 289 290 290 291 292 292 293 293 294 294 295 296 296 297 298 298 299 300 300 301 301 301 302 302 302 303 303 303 304 304 305 306 306 307 308 309 309 310 310 311 311 311 312 312 313 313 314 315 315 316 317 317 317 317 317 317 317 317 317 316 316 315 315 314
275 276 276 277 277 278 278 279 279 280 281 281 282 283 284 285 286 287 287 288 289 290 290 291 291 292 292 293 293 294 294 295 296 296 297 298 298 299 299 300 300 301 301 301 302 302 302 303 303 304 304 305 306 307 308 308 309 309 310 310 311 311 312 312 313 313 314 314 315 316 316 317 318 318 318 318 318 317 317 317 317 316 316 315 314
275 275 276 276 277 278 278 279 280 281 282 283 284 284 285 286 287 287 288 289 289 290 290 291 291 292 292 293 293 294 294 295 296 296 297 298 298 299 299 300 300 300 301 301 301 302 302 303 303 304 305 306 306 307 308 308 309 309 310 310 311 312 312 313 313 314 314 315 315 316 317 317 318 318 318 318 318 318 317 317 317 316 316 315 315
274 275 276 277 277 278 279 280 281 282 283 283 284 285 286 286 287 288 288 289 289 290 290 290 291 291 292 292 293 294 294 295 296 296 297 297 298 298 299 299 300 300 300 301 301 302 302 303 303 304 305 306 307 307 308 308 309 309 310 311 311 312 313 313 313 313 314 315 315 316 317 317 318 318 318 318 318 318 318 317 317 316 316 316 315
275 276 277 277 278 279 280 281 281 282 283 284 284 285 286 286 287 288 288 289 289 289 290 290 290 291 292 292 293 294 294 295 295 296 296 297 297 298 299 299 300 300 300 301 301 302 302 303 303 304 305 306 307 307 308 308 309 310 310 311 312 312 312 313 313 313 314 315 315 316 317 317 318 318 318 318 318 318 318 317 316 316 316 315 315
276 277 278 278 279 280 281 281 282 283 284 284 285 285 286 287 287 288 288 288 289 289 289 290 290 291 292 293 293 293 294 294 295 295 296 297 297 298 298 299 299 300 300 300 301 301 302 303 304 305 305 306 307 307 308 309 309 310 311 311 312 312 312 313 313 314 314 315 315 316 317 317 318 318 318 317 318 318 317 317 316 316 315 315 314
278 278 279 280 281 281 282 283 283 284 284 285 285 286 286 286 287 287 288 288 288 289 289 290 290 291 292 292 292 293 293 294 295 295 296 296 297 298 298 298 299 299 299 300 301 301 302 303 304 305 306 306 307 308 308 309 310 311 311 311 312 312 313 313 314 314 315 315 316 316 317 317 318 318 318 317 317 317 317 316 316 316 315 314 314
279 279 280 280 281 282 282 283 283 284 284 284 285 285 285 286 286 287 287 288 288 289 289 289 290 290 291 292 292 293 293 294 295 295 296 296 297 297 298 298 298 299 300 300 301 302 303 304 304 305 306 307 307 308 309 310 310 311 311 312 312 312 313 313 314 314 315 316 316 317 317 317 317 318 318 317 317 316 316 316 315 315 314 314 313
278 279 279 280 280 281 281 282 282 283 283 283 284 285 285 286 286 286 287 288 288 288 289 289 290 290 291 292 292 293 294 294 295 295 296 296 297 297 298 298 299 299 300 300 301 302 303 304 305 306 306 307 308 309 309 310 311 311 311 311 312 312 313 313 314 315 315 315 316 316 316 317 317 317 317 317 316 316 315 315 315 314 314 313 312
277 278 278 279 279 280 280 281 281 282 283 283 284 285 285 286 286 287 287 288 288 289 289 290 290 291 291 292 293 293 294 294 295 295 296 296 297 297 298 298 299 299 300 301 302 303 304 304 305 306 307 308 308 309 310 310 310 311 311 311 312 312 313 314 315 315 315 315 315 315 316 316 316 316 317 317 316 315 315 315 314 314 313 312 312
277 278 278 279 279 280 280 281 282 282 283 284 284 285 285 286 287 287 288 288 289 289 290 290 291 291 292 292 293 293 294 294 295 295 296 296 297 297 297 298 298 299 300 301 302 303 304 305 306 306 307 308 309 309 309 310 310 311 311 311 312 312 313 314 314 314 314 314 314 315 315 315 315 315 315 315 315 315 314 314 314 313 312 312 311
277 278 278 279 280 280 281 281 282 283 283 284 284 285 286 287 287 288 288 289 289 289 290 290 291 291 291 292 292 293 293 293 294 295 295 296 296 297 297 298 299 300 301 302 302 303 304 305 306 307 307 308 308 309 309 310 310 311 311 311 312 312 313 314 314 314 314 314 314 314 314 314 315 315 315 314 314 314 314 314 313 312 311 310 309
277 278 279 279 280 281 281 282 282 283 284 284 285 286 286 287 288 288 289 289 289 290 290 291 291 291 291 292 292 292 293 293 294 294 295 296 296 297 298 298 299 300 301 302 303 304 305 306 306 307 307 308 308 309 309 310 310 311 311 311 311 312 313 313 313 313 313 313 313 313 313 314 314 314 314 314 314 314 314 313 312 311 310 309 308
278 279 279 280 280 281 282 282 283 284 284 285 286 286 287 287 288 288 289 289 290 290 290 291 291 291 291 292 292 292 293 293 294 294 295 295 296 297 298 299 300 301 301 302 303 304 305 306 306 307 307 308 308 309 309 310 310 310 310 311 311 312 313 313 313 312 312 312 312 312 312 313 313 313 313 313 313 313 313 312 310 309 309 308 307
279 279 280 280 281 281 282 283 283 284 285 285 286 286 287 288 288 288 289 289 290 290 290 291 291 291 291 291 292 292 292 293 293 294 295 296 297 298 299 299 300 300 301 302 303 304 305 306 306 307 307 308 308 309 309 309 310 310 310 310 311 312 312 312 311 311 311 311 311 311 311 312 312 312 311 311 312 312 311 311 309 308 307 306 305
278 279 279 280 280 281 282 282 283 284 284 285 286 286 287 287 288 288 289 289 290 290 290 290 291 291 291 291 291 292 292 293 294 295 295 296 297 298 298 299 299 300 301 302 303 304 305 306 306 307 307 308 308 308 309 309 309 309 309 310 311 311 311 311 310 310 310 310 310 310 311 311 311 310 310 311 311 310 310 309 308 307 305 304 303
278 278 279 279 280 281 281 282 283 284 284 285 286 286 287 287 288 288 289 289 289 289 290 290 290 290 291 291 292 292 293 293 294 295 296 296 297 298 298 299 300 301 302 302 303 304 305 305 306 306 307 307 307 308 308 308 308 308 309 309 310 310 310 310 309 309 309 309 309 310 310 310 309 309 310 310 309 309 309 308 307 306 305 303 302
279 280 280 281 282 282 283 283 284 285 285 286 286 287 287 288 288 288 288 289 289 289 289 289 290 290 291 292 292 293 293 294 295 296 296 297 298 298 299 300 300 301 302 302 303 304 304 305 305 306 306 307 307 307 307 307 307 308 308 308 309 309 309 308 308 308 309 309 309 309 309 309 309 309 309 309 308 307 307 306 305 305 304 302 301
281 282 283 283 284 284 285 285 286 286 287 287 287 288 288 288 288 288 288 288 288 288 289 289 290 291 292 292 293 294 294 295 296 296 297 297 298 298 299 299 300 301 301 302 302 303 303 304 305 305 306 306 306 307 307 306 306 307 307 307 308 308 307 307 307 308 308 308 308 308 308 308 308 308 308 308 307 306 305 305 304 303 302 301 300
282 283 283 284 284 284 285 285 286 286 286 286 287 287 286 286 286 287 287 287 288 288 289 290 291 291 292 292 293 293 294 295 295 296 296 296 297 298 298 299 299 300 300 301 302 302 303 304 304 305 305 305 306 306 305 305 305 306 306 307 307 307 306 306 307 307 307 307 308 308 308 308 308 308 307 306 305 304 304 303 302 302 301 300 299
Height
10767 10766 10765 10764 10762 10761 10760 10759 10757 10755 10753 10751 10749 10746 10743 10740 10737 10734 10731 10728 10725 10721 10718 10715 10712 10708 10705 10701 10697 10693 10689 10684 10679 10674 10670 10665 10660 10655 10649 10643 10637 10631 10624 10618 10611 10605 10600 10594 10588 10582 10573 10566 10560 10554 10548 10540 10533 10526 10517 10510 10504 10493 10487 10486 10485 10492 10500 10492 10478 10472 10462 10451 10449 10441 10426 10421 10418 10408 10402 10396 10386 10380 10374 10366 10362
10760 10759 10757 10756 10755 10754 10752 10751 10749 10747 10745 10742 10740 10737 10734 10731 10728 10726 10723 10719 10716 10713 10709 10706 10702 10699 10695 10692 10688 10683 10679 10674 10668 10664 10659 10654 10649 10643 10638 10632 10625 10619 10612 10606 10600 10593 10588 10582 10576 10569 10561 10554 10548 10541 10535 10527 10519 10512 10503 10494 10489 10481 10470 10467 10466 10467 10476 10481 10471 10461 10452 10440 10433 10428 10416 10405 10401 10396 10393 10387 10376 10368 10363 10353 10345
10752 10751 10750 10749 10748 10746 10745 10743 10741 10739 10736 10733 10731 10728 10725 10722 10720 10717 10713 10710 10707 10703 10700 10696 10693 10689 10686 10682 10678 10673 10668 10663 10657 10653 10647 10642 10637 10631 10625 10619 10613 10607 10600 10593 10587 10581 10575 10569 10563 10557 10550 10542 10535 10528 10521 10514 10506 10498 10490 10482 10475 10469 10459 10450 10448 10448 10451 10460 10459 10450 10441 10431 10422 10414 10403 10392 10384 10377 10375 10373 10364 10355 10350 10341 10331
10745 10744 10743 10741 10740 10739 10737 10735 10732 10730 10727 10724 10721 10719 10716 10713 10710 10707 10704 10701 10697 10693 10690 10687 10683 10680 10676 10672 10667 10662 10657 10651 10646 10641 10636 10631 10625 10619 10613 10607 10601 10594 10587 10581 10575 10568 10562 10556 10549 10543 10537 10530 10522 10515 10507 10500 10493 10485 10478 10471 10463 10456 10448 10438 10431 10429 10428 10433 10437 10433 10423 10415 10409 10399 10386 10375 10370 10362 10354 10351 10345 10337 10332 10327 10318
10737 10736 10735 10733 10732 10730 10728 10726 10723 10720 10717 10715 10712 10709 10706 10704 10701 10698 10695 10691 10688 10684 10681 10678 10674 10670 10666 10661 10656 10651 10645 10639 10634 10629 10624 10619 10613 10608 10602 10595 10589 10582 10576 10569 10563 10556 10550 10543 10536 10530 10524 10518 10510 10503 10496 10488 10480 10473 10465 10458 10451 10443 10436 10427 10418 10413 10409 10408 10410 10411 10405 10396 10390 10383 10370 10355 10349 10345 10338 10333 10329 10321 10313 10309 10303
10729 10728 10726 10725 10723 10721 10719 10716 10713 10711 10708 10705 10702 10700 10697 10694 10691 10688 10685 10682 10679 10675 10672 10668 10664 10659 10655 10650 10645 10639 10633 10628 10622 10617 10612 10607 10601 10596 10590 10583 10577 10570 10563 10557 10550 10544 10538 10530 10524 10518 10511 10506 10500 10492 10486 10478 10469 10462 10454 10447 10439 10432 10425 10417 10409 10401 10396 10392 10389 10386 10384 10379 10370 10365 10357 10342 10330 10323 10315 10311 10312 10309 10298 10291 10287
10721 10719 10718 10716 10714 10712 10709 10706 10704 10701 10698 10696 10693 10690 10687 10684 10681 10679 10676 10673 10669 10666 10662 10658 10653 10649 10644 10639 10633 10628 10622 10617 10611 10606 10600 10595 10590 10584 10578 10571 10564 10557 10551 10544 10538 10531 10525 10517 10511 10505 10499 10493 10487 10481 10474 10467 10459 10450 10442 10435 10428 10421 10414 10406 10398 10390 10383 10379 10374 10367 10362 10359 10351 10342 10336 10327 10314 10304 10293 10282 10283 10286 10281 10274 10271
10712 10711 10709 10707 10704 10702 10699 10697 10694 10691 10689 10685 10682 10680 10677 10674 10672 10669 10666 10663 10659 10656 10652 10647 10643 10638 10633 10628 10623 10618 10612 10606 10601 10595 10589 10584 10578 10572 10566 10559 10552 10545 10537 10531 10525 10518 10511 10504 10497 10491 10485 10479 10473 10467 10460 10454 10447 10439 10429 10422 10415 10409 10402 10394 10386 10378 10370 10365 10359 10350 10342 10338 10331 10320 10314 10307 10296 10288 10280 10267 10259 10259 10256 10252 10251
10703 10701 10699 10696 10694 10692 10689 10686 10684 10681 10678 10675 10672 10670 10667 10664 10662 10659 10656 10652 10649 10645 10641 10636 10632 10627 10623 10618 10613 10608 10602 10596 10591 10585 10579 10573 10567 10561 10554 10547 10540 10533 10525 10517 10510 10504 10497 10490 10483 10476 10471 10464 10458 10452 10445 10438 10431 10425 10417 10408 10401 10394 10387 10380 10371 10362 10355 10349 10342 10333 10324 10319 10313 10301 10293 10288 10278 10269 10263 10253 10244 10239 10233 10228 10228
10693 10690 10688 10686 10683 10681 10678 10676 10673 10671 10668 10665 10662 10660 10657 10654 10651 10648 10644 10641 10637 10633 10629 10625 10621 10617 10612 10607 10602 10597 10592 10586 10580 10575 10569 10562 10556 10549 10542 10536 10529 10522 10515 10506 10498 10491 10484 10477 10470 10463 10457 10451 10444 10437 10430 10423 10415 10408 10400 10392 10384 10377 10370 10363 10356 10346 10338 10332 10325 10316 10306 10301 10296 10283 10271 10264 10257 10248 10240 10231 10224 10219 10213 10206 10205
10682 10680 10677 10675 10672 10670 10667 10665 10663 10660 10658 10655 10652 10649 10646 10643 10640 10636 10632 10628 10624 10620 10616 10613 10609 10605 10601 10596 10591 10586 10580 10575 10569 10564 10558 10551 10545 10538 10530 10524 10517 10510 10503 10496 10488 10480 10472 10465 10457 10451 10444 10438 10432 10425 10417 10409 10402 10393 10385 10376 10367 10359 10351 10344 10338 10331 10323 10315 10309 10300 10287 10277 10273 10264 10250 10239 10233 10227 10219 10212 10203 10196 10190 10183 10178
10672 10669 10667 10664 10662 10659 10657 10655 10653 10650 10647 10644 10641 10638 10635 10632 10628 10625 10620 10615 10611 10607 10604 10601 10597 10593 10588 10583 10578 10574 10568 10563 10557 10551 10546 10539 10533 10526 10519 10512 10505 10498 10490 10483 10476 10469 10461 10454 10446 10439 10433 10426 10420 10413 10406 10398 10390 10382 10373 10364 10354 10344 10334 10325 10318 10311 10304 10297 10291 10284 10271 10257 10250 10243 10230 10216 10209 10205 10198 10192 10185 10175 10168 10161 10154
10662 10659 10657 10654 10652 10650 10647 10645 10642 10640 10637 10634 10630 10627 10623 10620 10616 10612 10608 10603 10599 10595 10591 10588 10584 10580 10576 10571 10566 10561 10556 10550 10545 10539 10532 10526 10519 10513 10506 10499 10492 10485 10478 10471 10464 10456 10449 10442 10434 10427 10421 10414 10407 10401 10394 10387 10380 10371 10362 10352 10343 10332 10322 10312 10302 10293 10283 10274 10267 10262 10252 10238 10228 10222 10212 10198 10187 10181 10174 10169 10164 10155 10148 10143 10135
10652 10650 10648 10645 10643 10640 10637 10635 10632 10629 10626 10622 10619 10615 10611 10608 10604 10600 10595 10591 10587 10583 10579 10575 10571 10567 10563 10558 10553 10548 10543 10537 10531 10525 10518 10512 10506 10499 10492 10486 10479 10472 10465 10458 10450 10443 10436 10428 10421 10415 10408 10401 10395 10388 10382 10375 10368 10360 10352 10342 10332 10322 10311 10300 10292 10282 10270 10257 10247 10240 10232 10221 10209 10201 10193 10181 10169 10160 10152 10146 10140 10133 10128 10126 10119
10643 10641 10638 10635 10632 10629 10626 10624 10621 10618 10614 10610 10607 10603 10599 10595 10591 10587 10583 10579 10575 10571 10567 10562 10558 10554 10549 10545 10540 10535 10529 10523 10517 10511 10505 10498 10492 10485 10478 10472 10466 10458 10451 10444 10437 10429 10422 10414 10407 10400 10394 10387 10380 10373 10367 10360 10354 10347 10340 10331 10321 10311 10300 10288 10278 10269 10257 10246 10233 10222 10214 10204 10193 10183 10173 10162 10151 10142 10134 10127 10120 10111 10106 10106 10103
10633 10630 10627 10624 10621 10618 10615 10612 10609 10605 10602 10598 10594 10591 10587 10583 10579 10575 10571 10567 10563 10558 10554 10549 10545 10541 10536 10532 10527 10521 10515 10509 10503 10498 10493 10486 10479 10472 10465 10459 10453 10445 10438 10430 10423 10414 10407 10400 10393 10386 10378 10370 10363 10356 10348 10342 10336 10329 10324 10318 10309 10301 10290 10279 10267 10255 10242 10230 10219 10207 10197 10188 10178 10168 10156 10143 10131 10121 10115 10111 10105 10096 10089 10087 10086
10621 10618 10615 10611 10608 10605 10602 10599 10596 10593 10590 10586 10582 10579 10575 10570 10566 10563 10559 10554 10550 10545 10541 10537 10532 10528 10523 10519 10514 10507 10501 10496 10491 10486 10480 10474 10467 10459 10453 10446 10439 10432 10425 10416 10408 10400 10392 10385 10379 10372 10364 10354 10345 10338 10330 10324 10317 10310 10304 10299 10293 10286 10278 10269 10260 10248 10234 10220 10206 10193 10183 10173 10164 10155 10144 10130 10115 10103 10094 10091 10087 10081 10074 10071 10068
10608 10604 10601 10598 10595 10593 10590 10587 10584 10581 10577 10574 10570 10566 10562 10558 10554 10550 10546 10541 10537 10533 10529 10524 10520 10515 10511 10505 10499 10494 10488 10482 10478 10473 10468 10462 10455 10447 10440 10434 10427 10419 10411 10403 10395 10386 10379 10372 10365 10357 10349 10340 10330 10321 10313 10306 10299 10291 10284 10279 10274 10267 10261 10254 10247 10240 10230 10218 10204 10190 10176 10163 10153 10143 10133 10120 10105 10090 10078 10071 10067 10062 10058 10054 10049
10593 10590 10588 10586 10583 10580 10578 10575 10572 10569 10565 10561 10557 10553 10549 10545 10541 10537 10533 10528 10524 10520 10516 10512 10507 10502 10497 10492 10486 10480 10474 10469 10464 10460 10454 10448 10442 10435 10428 10422 10415 10407 10399 10390 10382 10374 10366 10358 10350 10342 10333 10325 10316 10306 10297 10288 10281 10273 10265 10258 10253 10247 10241 10235 10228 10222 10216 10208 10198 10186 10173 10160 10147 10134 10122 10109 10095 10080 10067 10057 10050 10043 10040 10037 10032
10580 10578 10576 10574 10571 10568 10565 10562 10559 10555 10552 10548 10544 10540 10536 10532 10528 10524 10520 10516 10512 10508 10503 10498 10494 10489 10484 10478 10472 10466 10460 10456 10451 10445 10439 10433 10428 10422 10415 10409 10403 10395 10387 10378 10370 10362 10353 10345 10336 10327 10319 10310 10301 10292 10282 10273 10264 10256 10247 10239 10232 10226 10221 10216 10210 10203 10195 10188 10179 10169 10158 10147 10135 10122 10107 10094 10081 10069 10058 10048 10039 10031 10024 10020 10017
10568 10567 10564 10562 10559 10556 10553 10549 10546 10542 10539 10535 10531 10527 10523 10519 10515 10512 10508 10504 10499 10495 10490 10485 10480 10475 10470 10464 10459 10452 10447 10442 10436 10430 10425 10419 10413 10408 10402 10396 10390 10383 10375 10367 10359 10350 10342 10333 10323 10314 10306 10297 10288 10279 10269 10259 10250 10240 10231 10222 10213 10205 10199 10195 10190 10184 10175 10166 10157 10148 10137 10127 10118 10107 10095 10082 10068 10055 10045 10037 10028 10020 10013 10006 10002
10556 10554 10552 10549 10546 10543 10539 10536 10532 10529 10525 10521 10518 10514 10510 10507 10503 10499 10495 10490 10486 10481 10476 10471 10466 10461 10456 10450 10444 10439 10433 10428 10422 10416 10411 10405 10399 10393 10387 10381 10376 10369 10362 10354 10346 10338 10329 10320 10311 10302 10293 10283 10274 10265 10255 10246 10236 10226 10216 10207 10197 10189 10182 10176 10170 10163 10155 10146 10137 10129 10120 10110 10101 10091 10080 10070 10058 10043 10031 10022 10013 10006 10000 9992 9985
10543 10541 10538 10535 10532 10529 10525 10522 10518 10515 10511 10508 10504 10501 10498 10494 10490 10486 10481 10476 10472 10467 10462 10457 10451 10446 10441 10435 10430 10425 10420 10414 10409 10402 10396 10390 10383 10377 10372 10366 10360 10354 10347 10340 10333 10325 10316 10308 10299 10290 10280 10270 10260 10250 10240 10231 10221 10212 10202 10193 10184 10176 10169 10162 10155 10147 10138 10129 10119 10111 10103 10095 10086 10076 10065 10057 10048 10035 10022 10010 10000 9992 9987 9979 9970
10529 10527 10524 10521 10517 10514 10511 10508 10505 10501 10498 10494 10491 10488 10484 10480 10476 10472 10467 10462 10457 10453 10447 10442 10437 10432 10426 10421 10416 10411 10406 10400 10394 10388 10381 10375 10368 10362 10356 10350 10344 10338 10331 10324 10317 10310 10303 10295 10286 10277 10267 10257 10246 10235 10225 10214 10205 10195 10186 10178 10170 10163 10156 10149 10142 10134 10125 10115 10104 10095 10088 10080 10073 10063 10052 10042 10035 10027 10016 10003 9990 9981 9976 9969 9958
10516 10513 10510 10506 10503 10500 10497 10494 10491 10488 10484 10481 10477 10474 10470 10467 10462 10457 10452 10448 10443 10439 10433 10428 10423 10417 10412 10406 10402 10397 10392 10386 10380 10374 10367 10360 10353 10347 10341 10335 10329 10322 10315 10308 10302 10295 10287 10279 10271 10262 10252 10242 10232 10221 10210 10199 10189 10179 10171 10163 10156 10149 10142 10134 10127 10118 10109 10100 10090 10081 10073 10066 10058 10050 10038 10027 10019 10013 10006 9996 9982 9970 9964 9959 9949
10502 10499 10495 10492 10489 10486 10484 10481 10478 10474 10471 10467 10464 10461 10457 10453 10448 10443 10439 10434 10429 10424 10419 10414 10409 10403 10397 10392 10387 10383 10378 10371 10365 10358 10352 10345 10339 10332 10326 10320 10313 10306 10299 10293 10286 10278 10270 10262 10254 10245 10236 10227 10217 10207 10197 10187 10177 10167 10157 10149 10142 10134 10126 10118 10110 10102 10094 10085 10077 10067 10058 10051 10043 10035 10024 10011 10002 9996 9992 9986 9975 9963 9954 9948 9940
10488 10485 10482 10479 10476 10474 10471 10468 10465 10462 10458 10454 10451 10447 10443 10438 10434 10429 10425 10420 10415 10410 10405 10400 10395 10389 10382 10378 10373 10368 10363 10357 10350 10342 10336 10329 10323 10317 10311 10304 10297 10290 10284 10277 10270 10262 10253 10245 10237 10229 10221 10213 10203 10193 10183 10173 10163 10154 10144 10135 10127 10119 10111 10103 10094 10085 10077 10069 10062 10053 10045 10037 10029 10021 10011 9999 9989 9982 9977 9971 9964 9955 9946 9939 9931
10474 10471 10469 10466 10464 10461 10458 10455 10452 10448 10445 10441 10437 10433 10428 10424 10420 10415 10411 10406 10402 10397 10392 10387 10381 10375 10369 10364 10359 10353 10347 10341 10334 10327 10321 10315 10309 10303 10297 10290 10283 10277 10270 10263 10255 10247 10238 10231 10223 10216 10208 10200 10191 10181 10170 10160 10149 10139 10130 10122 10113 10105 10097 10089 10081 10072 10063 10054 10047 10040 10032 10025 10017 10008 9999 9989 9979 9971 9966 9959 9952 9944 9936 9929 9923
10460 10458 10456 10453 10450 10447 10444 10441 10438 10435 10431 10426 10422 10418 10414 10410 10406 10401 10397 10393 10388 10383 10378 10373 10367 10361 10355 10349 10343 10338 10332 10326 10319 10312 10306 10300 10295 10289 10283 10277 10270 10264 10256 10249 10242 10234 10225 10218 10211 10203 10196 10188 10179 10170 10160 10151 10140 10129 10118 10109 10101 10093 10084 10076 10069 10061 10052 10044 10036 10028 10021 10015 10007 9997 9988 9979 9968 9960 9954 9948 9941 9934 9926 9919 9913
10446 10444 10441 10439 10436 10433 10430 10427 10424 10420 10416 10412 10408 10404 10400 10395 10391 10387 10383 10379 10374 10370 10365 10358 10352 10346 10341 10334 10329 10323 10317 10311 10304 10298 10292 10286 10280 10274 10269 10263 10257 10250 10243 10235 10228 10221 10213 10205 10198 10190 10183 10175 10167 10158 10150 10141 10132 10122 10110 10099 10090 10081 10073 10064 10056 10048 10040 10031 10023 10015 10009 10003 9996 9987 9978 9969 9959 9949 9942 9937 9931 9925 9917 9910 9904
10432 10429 10427 10424 10421 10418 10415 10412 10408 10404 10401 10397 10393 10390 10386 10381 10377 10373 10369 10365 10360 10355 10350 10343 10337 10332 10326 10321 10316 10310 10303 10297 10290 10284 10278 10272 10266 10260 10254 10249 10243 10236 10229 10221 10214 10207 10199 10192 10184 10176 10169 10161 10152 10144 10136 10127 10118 10110 10101 10090 10079 10069 10060 10053 10045 10036 10027 10019 10011 10002 9995 9989 9982 9974 9966 9958 9950 9941 9933 9926 9921 9915 9909 9902 9896
10417 10415 10412 10409 10406 10403 10399 10396 10393 10389 10386 10382 10378 10375 10371 10367 10362 10358 10354 10350 10345 10340 10335 10329 10323 10317 10312 10307 10302 10296 10290 10283 10277 10271 10265 10258 10252 10246 10241 10235 10229 10221 10214 10207 10200 10192 10185 10177 10169 10162 10154 10146 10138 10129 10121 10112 10103 10094 10086 10077 10067 10057 10048 10039 10031 10023 10015 10007 9999 9990 9982 9975 9968 9961 9953 9946 9938 9931 9924 9917 9911 9905 9900 9894 9888
10402 10400 10397 10394 10390 10387 10384 10380 10377 10373 10370 10366 10363 10359 10355 10351 10347 10343 10339 10335 10330 10325 10320 10314 10309 10303 10298 10293 10288 10282 10276 10270 10264 10258 10252 10245 10238 10232 10226 10221 10215 10207 10199 10192 10184 10177 10170 10162 10155 10147 10139 10132 10124 10115 10106 10096 10087 10078 10070 10061 10052 10043 10033 10024 10015 10007 10000 9992 9985 9977 9969 9962 9956 9948 9940 9933 9926 9919 9913 9907 9901 9895 9890 9885 9880
10387 10384 10381 10378 10375 10371 10368 10365 10361 10358 10355 10351 10348 10344 10340 10336 10332 10328 10324 10320 10315 10310 10305 10300 10295 10289 10284 10279 10274 10267 10262 10256 10250 10244 10238 10231 10224 10218 10212 10206 10199 10192 10185 10177 10170 10164 10157 10149 10141 10133 10125 10118 10110 10101 10092 10082 10073 10064 10055 10045 10036 10027 10018 10008 10000 9992 9985 9979 9972 9965 9958 9951 9944 9936 9929 9923 9916 9908 9901 9896 9890 9885 9880 9875 9871
10372 10369 10366 10363 10360 10357 10354 10350 10347 10344 10341 10337 10333 10329 10325 10322 10318 10314 10310 10305 10301 10296 10291 10285 10280 10275 10270 10266 10260 10254 10248 10243 10236 10230 10224 10217 10211 10205 10198 10191 10184 10176 10169 10162 10155 10149 10142 10135 10126 10119 10111 10104 10096 10088 10079 10069 10060 10051 10042 10032 10023 10013 10004 9996 9987 9980 9973 9967 9961 9955 9948 9942 9935 9926 9918 9912 9907 9900 9893 9887 9881 9875 9870 9866 9862
10356 10354 10351 10348 10345 10342 10339 10336 10334 10330 10327 10323 10319 10315 10311 10307 10303 10299 10295 10290 10286 10281 10276 10271 10266 10261 10257 10252 10247 10241 10235 10229 10223 10216 10210 10204 10198 10191 10185 10178 10170 10162 10154 10146 10139 10133 10127 10120 10112 10105 10098 10090 10082 10074 10065 10056 10047 10039 10029 10019 10010 10002 9993 9985 9977 9969 9962 9955 9949 9944 9938 9932 9926 9918 9909 9901 9896 9891 9885 9879 9873 9867 9862 9857 9853
10341 10339 10336 10333 10330 10328 10325 10322 10320 10316 10312 10308 10304 10300 10296 10292 10288 10284 10280 10275 10271 10266 10261 10256 10251 10247 10242 10238 10232 10226 10220 10214 10208 10202 10196 10189 10183 10177 10171 10164 10156 10148 10140 10132 10125 10119 10112 10105 10098 10091 10084 10076 10067 10059 10050 10042 10033 10025 10016 10006 9997 9988 9981 9973 9964 9957 9950 9944 9937 9931 9926 9921 9916 9910 9902 9893 9887 9882 9876 9870 9865 9860 9854 9849 9845
10326 10324 10321 10318 10316 10313 10310 10307 10304 10301 10298 10294 10289 10285 10281 10277 10273 10269 10265 10261 10256 10251 10246 10241 10236 10232 10228 10223 10217 10211 10205 10199 10193 10187 10181 10175 10169 10163 10157 10150 10142 10134 10127 10119 10112 10104 10097 10090 10083 10076 10069 10061 10053 10044 10036 10028 10019 10011 10003 9993 9984 9975 9968 9960 9951 9943 9936 9930 9924 9918 9913 9908 9904 9900 9893 9886 9879 9874 9868 9862 9857 9852 9847 9842 9838
10312 10309 10307 10305 10302 10299 10296 10293 10290 10286 10283 10279 10274 10271 10267 10263 10259 10255 10251 10247 10242 10237 10231 10226 10221 10217 10213 10208 10202 10196 10189 10183 10177 10172 10166 10160 10155 10149 10142 10135 10127 10120 10112 10104 10097 10090 10083 10076 10068 10061 10053 10045 10037 10029 10021 10013 10006 9998 9989 9981 9972 9964 9956 9949 9941 9932 9924 9918 9912 9906 9901 9896 9892 9888 9883 9877 9871 9866 9861 9855 9850 9845 9840 9835 9831
10298 10296 10294 10291 10288 10286 10283 10280 10276 10272 10268 10264 10260 10257 10253 10248 10244 10240 10236 10232 10227 10221 10216 10210 10205 10202 10197 10191 10185 10179 10173 10166 10161 10155 10149 10144 10138 10132 10125 10118 10110 10104 10097 10089 10082 10074 10067 10061 10053 10046 10038 10030 10022 10014 10007 9999 9992 9985 9976 9968 9961 9953 9946 9939 9931 9922 9913 9906 9901 9895 9890 9885 9881 9877 9873 9868 9861 9857 9853 9848 9842 9837 9833 9829 9825
10285 10283 10281 10278 10275 10272 10269 10266 10262 10258 10253 10250 10247 10242 10238 10233 10228 10224 10221 10216 10210 10205 10199 10193 10188 10184 10180 10175 10169 10163 10156 10150 10144 10138 10132 10126 10120 10114 10108 10101 10094 10088 10081 10074 10067 10060 10052 10045 10038 10031 10023 10015 10008 10000 9993 9986 9980 9973 9964 9956 9949 9942 9935 9928 9920 9912 9903 9896 9891 9885 9880 9876 9871 9867 9864 9860 9854 9847 9843 9839 9834 9829 9825 9822 9818
10270 10269 10266 10263 10260 10258 10254 10251 10247 10243 10239 10235 10231 10226 10222 10217 10213 10209 10204 10198 10193 10188 10183 10176 10171 10167 10163 10159 10154 10147 10140 10134 10128 10122 10116 10110 10104 10097 10091 10085 10078 10072 10066 10059 10053 10046 10038 10031 10023 10016 10009 10001 9994 9987 9980 9973 9967 9960 9952 9945 9937 9931 9924 9918 9910 9903 9894 9887 9881 9876 9871 9866 9862 9857 9854 9852 9847 9841 9835 9830 9826 9822 9818 9814 9811
10257 10254 10251 10248 10245 10242 10239 10235 10231 10227 10223 10220 10215 10211 10206 10201 10197 10192 10187 10181 10176 10172 10166 10161 10155 10150 10146 10143 10138 10132 10126 10119 10113 10107 10102 10095 10088 10081 10074 10068 10061 10055 10050 10044 10037 10031 10025 10017 10009 10001 9994 9987 9980 9973 9967 9960 9954 9947 9940 9933 9926 9920 9914 9907 9900 9893 9886 9878 9872 9866 9861 9857 9852 9848 9843 9841 9838 9834 9828 9822 9818 9814 9811 9808 9805
10242 10239 10236 10233 10230 10226 10223 10219 10214 10211 10207 10203 10199 10194 10189 10185 10181 10176 10170 10165 10161 10156 10150 10145 10140 10134 10130 10127 10122 10116 10110 10103 10097 10092 10086 10079 10072 10065 10058 10051 10044 10038 10033 10027 10021 10015 10010 10004 9995 9986 9979 9972 9965 9959 9952 9946 9940 9934 9928 9922 9916 9910 9904 9897 9889 9883 9877 9870 9863 9857 9852 9847 9843 9838 9834 9830 9827 9825 9821 9816 9810 9806 9803 9800 9798
10226 10223 10220 10217 10214 10210 10206 10202 10198 10195 10191 10187 10182 10177 10173 10169 10165 10160 10154 10150 10146 10140 10135 10129 10124 10119 10114 10110 10105 10100 10094 10087 10082 10076 10070 10064 10057 10050 10042 10034 10027 10022 10017 10011 10006 10000 9996 9989 9981 9973 9965 9958 9950 9944 9937 9931 9926 9920 9914 9909 9904 9899 9893 9887 9880 9873 9868 9862 9855 9849 9844 9839 9834 9829 9825 9820 9817 9815 9813 9810 9805 9800 9796 9792 9790
10211 10207 10204 10201 10198 10194 10190 10186 10182 10179 10175 10170 10166 10161 10157 10153 10148 10143 10139 10134 10129 10124 10119 10113 10108 10102 10097 10092 10088 10082 10077 10071 10065 10059 10053 10047 10041 10034 10026 10018 10012 10006 10001 9996 9991 9985 9980 9975 9967 9960 9952 9945 9937 9930 9923 9917 9911 9905 9900 9895 9891 9887 9882 9876 9870 9864 9859 9853 9847 9841 9836 9831 9826 9821 9817 9812 9808 9805 9802 9801 9798 9795 9791 9786 9783
10195 10191 10188 10185 10181 10177 10174 10170 10166 10162 10159 10155 10150 10146 10142 10138 10133 10128 10123 10118 10113 10108 10102 10097 10091 10086 10080 10074 10070 10064 10058 10053 10047 10041 10036 10030 10025 10018 10011 10003 9997 9991 9986 9981 9975 9970 9965 9960 9953 9946 9940 9933 9925 9917 9911 9904 9897 9891 9887 9882 9878 9874 9870 9865 9859 9854 9849 9844 9838 9833 9828 9823 9818 9813 9809 9804 9799 9796 9793 9791 9789 9787 9784 9781 9778
10178 10174 10171 10168 10164 10161 10157 10153 10150 10146 10143 10138 10133 10129 10126 10121 10116 10112 10107 10101 10096 10091 10085 10080 10074 10068 10062 10057 10052 10046 10040 10035 10030 10024 10019 10013 10008 10001 9994 9987 9980 9975 9970 9965 9960 9955 9951 9945 9940 9934 9928 9921 9913 9906 9899 9892 9885 9879 9874 9871 9867 9863 9858 9853 9848 9843 9838 9834 9829 9824 9819 9814 9809 9805 9800 9796 9791 9788 9785 9782 9780 9778 9775 9773 9771
10159 10156 10153 10149 10146 10143 10139 10135 10132 10129 10125 10120 10116 10112 10108 10104 10099 10095 10090 10084 10079 10073 10068 10062 10056 10050 10044 10038 10033 10027 10022 10017 10011 10005 9999 9994 9989 9983 9977 9970 9964 9959 9954 9949 9944 9940 9936 9931 9926 9921 9916 9908 9901 9894 9887 9880 9873 9867 9863 9860 9856 9852 9846 9841 9837 9833 9828 9824 9819 9815 9810 9806 9801 9796 9792 9788 9784 9780 9777 9774 9772 9769 9767 9764 9762
10141 10138 10135 10132 10128 10125 10121 10117 10114 10111 10106 10101 10098 10094 10090 10086 10082 10077 10072 10066 10061 10055 10049 10044 10038 10032 10026 10021 10015 10009 10004 9999 9994 9988 9982 9976 9971 9966 9961 9955 9949 9944 9939 9935 9930 9926 9922 9917 9913 9908 9902 9895 9888 9882 9876 9869 9862 9857 9852 9849 9846 9841 9835 9829 9826 9822 9817 9813 9809 9805 9800 9796 9791 9787 9783 9779 9776 9772 9769 9766 9764 9761 9759 9757 9754
10123 10121 10118 10115 10111 10108 10104 10101 10097 10093 10089 10085 10082 10078 10073 10069 10064 10059 10054 10049 10043 10037 10032 10026 10021 10016 10010 10005 10000 9994 9989 9984 9978 9973 9966 9960 9955 9950 9945 9940 9935 9930 9925 9921 9917 9912 9908 9904 9899 9894 9888 9882 9875 9869 9863 9857 9851 9846 9841 9838 9835 9830 9824 9819 9815 9810 9806 9802 9799 9795 9790 9786 9782 9778 9774 9771 9767 9764 9761 9759 9756 9753 9751 9749 9747